Location: Sawmill Trailhead
(33.5800°N, 116.4497°W)
Time: 08:16:33
(UTC-07:00)

Amateur Radio Satellites - All Passes

Search period start: 25 October 2014 07:46
Search period end: 26 October 2014 07:46
Location: Sawmill Trailhead, 33.5800°N, 116.4497°W

Satellite Date Start Highest point End Downlink Frequencies (MHz)
Time Altitude Azimuth
PANSAT 25 Oct 07:55:52 07:59:21 33° 173° (S) 08:02:50 not established
RS-15 25 Oct 08:00:07 08:11:24 82° 245° (WSW) 08:23:12 29.354 - 29.394 USB, Beacon 29.352 USB
STRAND 1 25 Oct 08:13:18 08:16:05 15° 267° (W) 08:18:52 ?
HO-68 25 Oct 08:23:39 08:27:55 17° 93° (E) 08:32:10 435.675 MHz FM
Oscar 10/S400 25 Oct 08:58:14 09:39:22 19° 162° (SSE) 09:54:59 145.825 - 145.975 CW/USB, Beacon 145.810 USB
MaSat-1 25 Oct 09:12:23 09:14:40 30° 64° (ENE) 09:16:50 437.345 MHz
PANSAT 25 Oct 09:35:39 09:39:11 36° 185° (S) 09:42:43 not established
UKube-1 25 Oct 09:49:34 09:53:22 29° 98° (E) 09:57:09 145.840 MHz, 145.915 MHz
HO-68 25 Oct 10:08:58 10:16:08 74° 288° (WNW) 10:23:16 435.675 MHz FM
RS-15 25 Oct 10:16:20 10:22:08 16° 261° (W) 10:28:06 29.354 - 29.394 USB, Beacon 29.352 USB
FUNcube-1 25 Oct 10:29:59 10:33:44 31° 97° (E) 10:37:25 145.950 - 145.970 MHz USB
Oscar 11 25 Oct 10:30:09 10:34:28 88° 102° (ESE) 10:38:46 145.825 FM, Beacon 2401.500 USB
ISS 25 Oct 10:52:30 10:54:08 13° 126° (SE) 10:55:46 145.800 FM
PANSAT 25 Oct 11:16:07 11:18:55 20° 198° (SSW) 11:21:44 not established
ZACube-1 25 Oct 11:21:20 11:25:29 56° 285° (WNW) 11:29:32 437.345 MHz
UKube-1 25 Oct 11:26:09 11:29:19 20° 291° (WNW) 11:32:29 145.840 MHz, 145.915 MHz
SO-50 25 Oct 11:30:29 11:33:23 17° 109° (ESE) 11:36:19 436.795 FM
PCSat 25 Oct 11:38:03 11:38:36 10° 46° (NE) 11:39:10 145.825 MHz
KITSAT 1 25 Oct 11:44:39 11:52:38 69° 113° (ESE) 12:00:39 435.175 FM
HO-68 25 Oct 12:00:34 12:02:36 11° 304° (NW) 12:04:38 435.675 MHz FM
FUNcube-1 25 Oct 12:07:07 12:09:50 17° 292° (WNW) 12:12:31 145.950 - 145.970 MHz USB
ISS 25 Oct 12:27:19 12:30:30 43° 320° (NW) 12:33:43 145.800 FM
Oscar 19 25 Oct 12:51:45 12:56:12 30° 70° (ENE) 13:00:39 437.125 CW, 437.150 USB
Sapphire 25 Oct 12:55:08 13:00:20 44° 60° (ENE) 13:05:29 437.095 MHz 1200 baud AX-25 AFSK
SO-50 25 Oct 13:09:23 13:13:33 39° 304° (WNW) 13:17:52 436.795 FM
AO-27 25 Oct 13:12:14 13:15:53 20° 66° (ENE) 13:19:32 436.795 MHz FM
PCSat 25 Oct 13:17:26 13:22:53 78° 64° (ENE) 13:28:17 145.825 MHz
JAS-1B 25 Oct 13:20:32 13:26:24 51° 73° (ENE) 13:31:51 435.800 - 435.900 CW/SSB
AO-Echo 25 Oct 13:26:51 13:31:09 32° 70° (ENE) 13:35:36 ?
Oscar 16 25 Oct 13:36:47 13:41:57 89° 256° (WSW) 13:47:08 437.025 USB, Beacon 2401.1428
KITSAT 1 25 Oct 13:42:15 13:48:38 25° 312° (NW) 13:55:04 435.175 FM
Uribyol 2 25 Oct 13:57:46 14:02:53 59° 74° (ENE) 14:08:01 436.500 FM
ITAMSAT 1 25 Oct 14:03:59 14:09:06 64° 74° (ENE) 14:14:17 435.822 SSB
Gurwin Techsat 1B 25 Oct 14:28:22 14:33:32 56° 74° (ENE) 14:38:43 435.225 FM
UOSAT-12 25 Oct 14:28:25 14:33:00 69° 300° (WNW) 14:37:41 437.025 FM, 437.400 FM
Oscar 19 25 Oct 14:31:13 14:35:28 26° 264° (W) 14:39:43 437.125 CW, 437.150 USB
TMSAT-1 25 Oct 14:39:09 14:44:15 51° 73° (ENE) 14:49:23 436.925 FM
Sapphire 25 Oct 14:39:30 14:43:22 20° 255° (WSW) 14:47:13 437.095 MHz 1200 baud AX-25 AFSK
AO-27 25 Oct 14:50:06 14:55:01 43° 261° (W) 14:59:59 436.795 MHz FM
PCSat 25 Oct 15:04:43 15:05:32 10° 258° (WSW) 15:06:21 145.825 MHz
AO-Echo 25 Oct 15:06:12 15:09:56 22° 265° (W) 15:13:46 ?
AO-7 25 Oct 15:11:49 15:19:03 36° 63° (ENE) 15:26:19 29.400 - 29.500 MHz
JAS-1B 25 Oct 15:13:40 15:17:18 16° 265° (W) 15:20:47 435.800 - 435.900 CW/SSB
Uosat F 25 Oct 15:14:25 15:17:03 15° 65° (ENE) 15:19:42 435.120 FM
Uribyol 2 25 Oct 15:40:16 15:42:40 13° 267° (W) 15:45:05 436.500 FM
ITAMSAT 1 25 Oct 15:47:01 15:48:57 12° 268° (W) 15:50:54 435.822 SSB
Saudisat 1A 25 Oct 15:55:51 15:59:39 27° 54° (NE) 16:03:26 436.775 MHz
JAS-2 25 Oct 15:57:05 15:58:54 11° 57° (ENE) 16:00:45 435.800 - 435.900 CW/SSB, 435.910 FM
Gurwin Techsat 1B 25 Oct 16:10:57 16:13:46 14° 267° (W) 16:16:36 435.225 FM
TMSAT-1 25 Oct 16:21:16 16:24:24 16° 267° (W) 16:27:32 436.925 FM
Uosat F 25 Oct 16:50:25 16:55:19 55° 259° (W) 17:00:16 435.120 FM
OPAL 25 Oct 17:01:52 17:05:05 17° 96° (E) 17:08:17 ?
AO-7 25 Oct 17:03:47 17:11:34 45° 259° (W) 17:19:25 29.400 - 29.500 MHz
Hamsat 25 Oct 17:26:50 17:30:46 40° 74° (ENE) 17:34:41 145.90 MHz
AO-40 25 Oct 17:28:50 23:33:50 51° 183° (S) 07:35:39 Beacon 2401.320
Saudisat 1A 25 Oct 17:35:31 17:39:05 24° 249° (WSW) 17:42:38 436.775 MHz
JAS-2 25 Oct 17:36:53 17:42:40 86° 76° (ENE) 17:49:18 435.800 - 435.900 CW/SSB, 435.910 FM
OPAL 25 Oct 18:39:27 18:44:06 42° 290° (WNW) 18:48:44 ?
STRAND 1 25 Oct 18:47:00 18:51:11 25° 96° (E) 18:55:19 ?
ISS 25 Oct 18:59:12 19:02:12 30° 38° (NE) 19:05:11 145.800 FM
Hamsat 25 Oct 19:04:56 19:06:50 13° 267° (W) 19:08:44 145.90 MHz
SO-67 25 Oct 19:35:18 19:38:30 37° 262° (W) 19:41:43 435.3500 MHz FM
KITSAT 1 25 Oct 19:43:49 19:49:01 18° 43° (NE) 19:54:11 435.175 FM
RS-15 25 Oct 20:10:44 20:18:01 20° 101° (ESE) 20:25:10 29.354 - 29.394 USB, Beacon 29.352 USB
STRAND 1 25 Oct 20:25:48 20:30:19 32° 290° (WNW) 20:34:49 ?
HO-68 25 Oct 20:32:41 20:39:37 57° 70° (ENE) 20:46:36 435.675 MHz FM
ISS 25 Oct 20:36:14 20:38:43 20° 232° (SW) 20:41:12 145.800 FM
UKube-1 25 Oct 20:42:13 20:44:53 16° 67° (ENE) 20:47:33 145.840 MHz, 145.915 MHz
Oscar 11 25 Oct 21:21:12 21:25:14 40° 73° (ENE) 21:29:17 145.825 FM, Beacon 2401.500 USB
FUNcube-1 25 Oct 21:23:01 21:26:05 18° 69° (ENE) 21:29:07 145.950 - 145.970 MHz USB
KITSAT 1 25 Oct 21:37:28 21:45:35 84° 63° (ENE) 21:53:39 435.175 FM
SO-50 25 Oct 21:44:14 21:49:03 61° 59° (ENE) 21:53:53 436.795 FM
ZACube-1 25 Oct 22:13:03 22:17:37 68° 76° (ENE) 22:22:08 437.345 MHz
UKube-1 25 Oct 22:16:43 22:20:44 36° 261° (W) 22:24:46 145.840 MHz, 145.915 MHz
RS-15 25 Oct 22:17:54 22:28:59 83° 298° (WNW) 22:39:57 29.354 - 29.394 USB, Beacon 29.352 USB
HO-68 25 Oct 22:22:14 22:27:36 23° 265° (W) 22:33:00 435.675 MHz FM
MaSat-1 25 Oct 22:44:15 22:48:03 33° 109° (ESE) 22:51:34 437.345 MHz
FUNcube-1 25 Oct 22:57:55 23:02:09 36° 262° (W) 23:06:20 145.950 - 145.970 MHz USB
Oscar 11 25 Oct 22:59:21 23:01:32 14° 267° (W) 23:03:44 145.825 FM, Beacon 2401.500 USB
UOSAT-12 25 Oct 23:02:08 23:06:24 33° 55° (NE) 23:10:36 437.025 FM, 437.400 FM
SO-50 25 Oct 23:27:03 23:29:04 13° 253° (WSW) 23:31:05 436.795 FM
KITSAT 1 25 Oct 23:35:31 23:39:57 16° 259° (WSW) 23:44:22 435.175 FM
MaSat-1 26 Oct 00:21:01 00:23:38 16° 299° (WNW) 00:26:06 437.345 MHz
RS-15 26 Oct 00:35:11 00:43:10 22° 323° (NW) 00:51:13 29.354 - 29.394 USB, Beacon 29.352 USB
UOSAT-12 26 Oct 00:42:45 00:46:19 22° 250° (WSW) 00:49:49 437.025 FM, 437.400 FM
JAS-1B 26 Oct 01:07:51 01:13:00 20° 96° (E) 01:18:43 435.800 - 435.900 CW/SSB
Oscar 19 26 Oct 01:08:38 01:11:21 14° 93° (E) 01:14:04 437.125 CW, 437.150 USB
AO-Echo 26 Oct 01:39:00 01:42:12 16° 93° (E) 01:45:23 ?
Oscar 16 26 Oct 01:52:48 01:57:41 44° 99° (E) 02:02:33 437.025 USB, Beacon 2401.1428
PCSat 26 Oct 02:13:56 02:17:26 18° 105° (ESE) 02:20:56 145.825 MHz
Uribyol 2 26 Oct 02:15:08 02:19:37 29° 97° (E) 02:24:05 436.500 FM
ITAMSAT 1 26 Oct 02:21:24 02:26:02 32° 98° (E) 02:30:37 435.822 SSB
Oscar 19 26 Oct 02:45:58 02:50:56 52° 287° (WNW) 02:55:53 437.125 CW, 437.150 USB
Gurwin Techsat 1B 26 Oct 02:49:04 02:53:45 31° 97° (E) 02:58:23 435.225 FM
JAS-1B 26 Oct 02:56:46 03:03:39 66° 286° (WNW) 03:11:54 435.800 - 435.900 CW/SSB
TMSAT-1 26 Oct 02:59:31 03:04:03 28° 97° (E) 03:08:34 436.925 FM
AO-27 26 Oct 03:06:56 03:12:11 85° 284° (WNW) 03:17:23 436.795 MHz FM
AO-Echo 26 Oct 03:16:02 03:21:11 52° 287° (WNW) 03:26:17 ?
AO-7 26 Oct 03:21:01 03:23:49 12° 91° (E) 03:26:36 29.400 - 29.500 MHz
Sapphire 26 Oct 03:32:31 03:37:55 87° 295° (WNW) 03:43:22 437.095 MHz 1200 baud AX-25 AFSK
Oscar 16 26 Oct 03:33:16 03:36:39 18° 294° (WNW) 03:40:02 437.025 USB, Beacon 2401.1428
Uribyol 2 26 Oct 03:54:37 03:58:57 28° 291° (WNW) 04:03:16 436.500 FM
PCSat 26 Oct 03:55:09 04:00:22 50° 299° (WNW) 04:05:38 145.825 MHz
ITAMSAT 1 26 Oct 04:01:06 04:05:20 26° 292° (WNW) 04:09:33 435.822 SSB
OPAL 26 Oct 04:12:47 04:16:39 22° 66° (ENE) 04:20:30 ?
Gurwin Techsat 1B 26 Oct 04:29:09 04:33:33 27° 291° (WNW) 04:37:56 435.225 FM
TMSAT-1 26 Oct 04:39:21 04:43:52 29° 291° (WNW) 04:48:22 436.925 FM
JAS-2 26 Oct 04:51:35 04:56:48 19° 91° (E) 05:01:54 435.800 - 435.900 CW/SSB, 435.910 FM
Uosat F 26 Oct 05:02:05 05:07:06 63° 102° (ESE) 05:12:05 435.120 FM
AO-7 26 Oct 05:09:10 05:17:32 81° 106° (ESE) 05:25:53 29.400 - 29.500 MHz
RS-15 26 Oct 05:12:55 05:21:01 22° 37° (NE) 05:29:16 29.354 - 29.394 USB, Beacon 29.352 USB
Sapphire 26 Oct 05:20:23 05:22:06 11° 313° (NW) 05:23:50 437.095 MHz 1200 baud AX-25 AFSK
OPAL 26 Oct 05:50:30 05:55:15 38° 259° (W) 05:59:59 ?
PANSAT 26 Oct 05:51:31 05:54:07 18° 161° (SSE) 05:56:44 not established
STRAND 1 26 Oct 05:59:17 06:03:21 24° 68° (ENE) 06:07:26 ?
Saudisat 1A 26 Oct 05:59:25 06:02:20 18° 109° (ESE) 06:05:15 436.775 MHz
JAS-2 26 Oct 06:34:28 06:42:19 76° 286° (WNW) 06:49:59 435.800 - 435.900 CW/SSB, 435.910 FM
Uosat F 26 Oct 06:43:08 06:45:17 13° 296° (WNW) 06:47:26 435.120 FM
Hamsat 26 Oct 06:51:53 06:56:00 54° 285° (WNW) 07:00:07 145.90 MHz
SO-67 26 Oct 07:03:01 07:05:23 17° 95° (E) 07:07:44 435.3500 MHz FM
AO-7 26 Oct 07:03:49 07:09:20 20° 303° (WNW) 07:14:53 29.400 - 29.500 MHz
PANSAT 26 Oct 07:30:20 07:33:50 34° 173° (S) 07:37:20 not established
Saudisat 1A 26 Oct 07:37:33 07:41:35 36° 304° (WNW) 07:45:39 436.775 MHz
